DW3219 Weather Reports


time (UTC)temp
C
wind
direction
speed
KPH
gust
KPH
rain 1hr
cm
rain 24hr
cm
rain mn
cm
humidity
%
barometer
mb
20260906230059 31 73 0.0 0.0 0.00 0.00 0.00 22 1001.5
20260906224549 31 71 0.0 0.0 0.00 0.00 0.00 22 1001.9
20260906223047 30 73 0.0 4.8 0.00 0.00 0.00 25 1002.1
20260906221544 30 80 0.0 8.0 0.00 0.00 0.00 25 1002.4
20260906220031 30 89 0.0 1.6 0.00 0.00 0.00 25 1002.5
20260906214526 30 41 0.0 3.2 0.00 0.00 0.00 26 1002.9
20260906213025 30 42 0.0 6.4 0.00 0.00 0.00 26 1003.1
20260906211523 30 115 0.0 1.6 0.00 0.00 0.00 27 1003.2
20260906210019 29 39 0.0 0.0 0.00 0.00 0.00 29 1003.7
20260906204518 28 14 0.0 4.8 0.00 0.00 0.00 30 1003.9
20260906203015 28 242 0.0 9.7 0.00 0.00 0.00 31 1004.2
20260906201514 28 28 0.0 1.6 0.00 0.00 0.00 32 1004.4
20260906194553 27 344 0.0 3.2 0.00 0.00 0.00 34 1005.0
20260906193041 26 94 0.0 3.2 0.00 0.00 0.00 38 1005.3
20260906191537 26 64 0.0 8.0 0.00 0.00 0.00 39 1005.7
20260906190036 26 46 0.0 4.8 0.00 0.00 0.00 39 1006.1
20260906184538 25 259 0.0 3.2 0.00 0.00 0.00 40 1006.5
20260906183042 25 295 0.0 0.0 0.00 0.00 0.00 41 1006.8
20260906181543 25 355 0.0 0.0 0.00 0.00 0.00 45 1007.1
20260906180039 23 355 0.0 3.2 0.00 0.00 0.00 48 1007.5
20260906174536 22 50 0.0 0.0 0.00 0.00 0.00 49 1007.9
20260906173022 22 30 0.0 3.2 0.00 0.00 0.00 52 1008.1
20260906171522 22 277 0.0 4.8 0.00 0.00 0.00 50 1008.5
20260906170021 22 122 0.0 3.2 0.00 0.00 0.00 52 1008.7
20260906164532 21 111 0.0 3.2 0.00 0.00 0.00 53 1008.7
20260906163024 21 76 0.0 0.0 0.00 0.00 0.00 53 1008.9
20260906161520 20 71 0.0 0.0 0.00 0.00 0.00 54 1009.1
20260906160019 20 250 0.0 0.0 0.00 0.00 0.00 54 1009.0
20260906154519 20 252 0.0 0.0 0.00 0.00 0.00 54 1009.2
20260906153013 20 257 0.0 0.0 0.00 0.00 0.00 54 1009.3
20260906151507 18 257 0.0 0.0 0.00 0.00 0.00 59 1009.4
20260906150005 17 255 0.0 0.0 0.00 0.00 0.00 59 1009.7
20260906144507 17 257 0.0 0.0 0.00 0.00 0.00 62 1009.8
20260906143011 16 257 0.0 0.0 0.00 0.00 0.00 70 1009.8
20260906141511 15 254 0.0 1.6 0.00 0.00 0.00 71 1009.8
20260906140004 14 250 0.0 1.6 0.00 0.00 0.00 73 1009.8
20260906134504 13 249 0.0 0.0 0.00 0.00 0.00 74 1009.8
20260906133001 12 249 0.0 0.0 0.00 0.00 0.00 76 1009.7
20260906131544 12 249 0.0 0.0 0.00 0.00 0.00 76 1009.6
20260906130042 12 249 0.0 0.0 0.00 0.00 0.00 75 1009.7
20260906124530 12 249 0.0 0.0 0.00 0.00 0.00 76 1009.6
20260906123033 12 250 0.0 0.0 0.00 0.00 0.00 74 1009.5
20260906121503 13 250 0.0 0.0 0.00 0.00 0.00 73 1009.3
20260906120110 13 250 0.0 1.6 0.00 0.00 0.00 71 1009.3
20260906114547 13 254 0.0 8.0 0.00 0.00 0.00 71 1009.1
20260906113051 13 256 0.0 3.2 0.00 0.00 0.00 69 1009.2
20260906111543 14 256 0.0 3.2 0.00 0.00 0.00 68 1009.0
20260906110041 14 254 0.0 4.8 0.00 0.00 0.00 68 1009.4
20260906104539 15 259 0.0 0.0 0.00 0.00 0.00 66 1009.0
20260906103046 15 267 0.0 1.6 0.00 0.00 0.00 64 1008.9
20260906101533 16 273 0.0 0.0 0.00 0.00 0.00 61 1008.9
20260906100035 16 269 0.0 3.2 0.00 0.00 0.00 60 1008.9
20260906094519 16 273 0.0 0.0 0.00 0.00 0.00 59 1008.6
20260906093021 16 273 0.0 0.0 0.00 0.00 0.00 59 1008.6
20260906091518 16 270 0.0 4.8 0.00 0.00 0.00 60 1008.8
20260906090017 16 263 0.0 3.2 0.00 0.00 0.00 60 1008.6
20260906084518 16 263 0.0 4.8 0.00 0.00 0.00 61 1008.4
20260906083013 16 274 0.0 4.8 0.00 0.00 0.00 61 1008.2
20260906081513 16 256 0.0 1.6 0.00 0.00 0.00 60 1007.8
20260906080010 16 257 0.0 0.0 0.00 0.00 0.00 59 1008.0
20260906074550 16 261 0.0 3.2 0.00 0.00 0.00 57 1008.0
20260906073046 17 252 0.0 0.0 0.00 0.00 0.00 55 1008.1
20260906071525 17 261 0.0 4.8 0.00 0.00 0.00 53 1007.9
20260906070024 18 227 0.0 8.0 0.00 0.00 0.00 53 1007.7
20260906064517 17 253 0.0 4.8 0.00 0.00 0.00 53 1007.7
20260906063012 18 259 0.0 0.0 0.00 0.00 0.00 52 1007.5
20260906061520 18 261 0.0 0.0 0.00 0.00 0.00 51 1007.5
20260906060006 19 261 0.0 0.0 0.00 0.00 0.00 49 1007.5
20260906054508 20 269 0.0 1.6 0.00 0.00 0.00 46 1007.7
20260906053102 20 270 0.0 1.6 0.00 0.00 0.00 45 1007.6
20260906051605 20 263 0.0 8.0 0.00 0.00 0.00 44 1007.5
20260906050056 21 258 0.0 0.0 0.00 0.00 0.00 44 1007.5
20260906044543 21 248 0.0 1.6 0.00 0.00 0.00 44 1007.4
20260906043040 21 263 0.0 4.8 0.00 0.00 0.00 42 1007.4
20260906041538 21 273 0.0 3.2 0.00 0.00 0.00 42 1007.2
20260906040037 21 257 0.0 8.0 0.00 0.00 0.00 41 1007.1
20260906034535 22 257 0.0 6.4 0.00 0.00 0.00 41 1007.1
20260906033033 22 275 0.0 1.6 0.00 0.00 0.00 39 1006.9
20260906031528 22 269 0.0 4.8 0.00 0.00 0.00 39 1006.8
20260906030028 22 342 0.0 0.0 0.00 0.00 0.00 39 1006.7
20260906024509 23 350 0.0 0.0 0.00 0.00 0.00 39 1006.5
20260906023004 24 314 0.0 0.0 0.00 0.00 0.00 37 1006.3
20260906021546 25 316 0.0 0.0 0.00 0.00 0.00 34 1006.2
20260906020040 25 313 0.0 0.0 0.00 0.00 0.00 33 1006.1
20260906014527 25 56 0.0 1.6 0.00 0.00 0.00 33 1005.9
20260906013034 26 329 0.0 8.0 0.00 0.00 0.00 32 1005.9
20260906011519 26 350 0.0 6.4 0.00 0.00 0.00 31 1005.9
20260906010018 26 34 1.6 14.5 0.00 0.00 0.00 30 1005.9
20260906004515 27 26 0.0 24.1 0.00 0.00 0.00 30 1005.7
20260906003019 28 56 0.0 17.7 0.00 0.00 0.00 28 1005.6
20260906001512 28 21 0.0 12.9 0.00 0.00 0.00 26 1005.5
20260906000007 29 50 0.0 6.4 0.00 0.00 0.00 26 1005.6
20260905234554 30 70 0.0 6.4 0.00 0.00 0.00 25 1005.7
20260905233053 30 351 0.0 8.0 0.00 0.00 0.00 25 1005.7
20260905231550 29 90 0.0 1.6 0.00 0.00 0.00 25 1005.7